Date,Installs,Update checks
2016-02-18,4,2
2016-02-19,2,2
2016-02-20,0,6
2016-02-21,2,1
2016-02-22,0,8
2016-02-23,1,4
2016-02-24,0,7
2016-02-25,0,5
2016-02-26,5,5
2016-02-27,2,2
2016-02-28,1,8
2016-02-29,0,7
2016-03-01,0,6
2016-03-02,0,4
2016-03-03,0,8
2016-03-04,0,3
2016-03-05,0,7
2016-03-06,1,5
2016-03-07,1,5
2016-03-08,3,6
2016-03-09,1,5
2016-03-10,0,5
2016-03-11,2,8
2016-03-12,0,5
2016-03-13,4,8
2016-03-14,0,4
2016-03-15,1,7
2016-03-16,2,5
2016-03-17,0,7
2016-03-18,4,6
2016-03-19,0,9
2016-03-20,0,7
2016-03-21,2,7
2016-03-22,2,8
2016-03-23,0,11
2016-03-24,0,5
2016-03-25,3,12
2016-03-26,3,8
2016-03-27,1,6
2016-03-28,0,8
2016-03-29,3,13
2016-03-30,4,6
2016-03-31,5,10
2016-04-01,5,9
2016-04-02,5,13
2016-04-03,1,7
2016-04-04,3,20
2016-04-05,1,8
2016-04-06,2,17
2016-04-07,4,15
2016-04-08,2,13
2016-04-09,4,16
2016-04-10,2,15
2016-04-11,0,12
2016-04-12,1,16
2016-04-13,0,14
2016-04-14,1,16
2016-04-15,3,16
2016-04-16,4,14
2016-04-17,4,15
2016-04-18,1,15
2016-04-19,3,15
2016-04-20,1,12
2016-04-21,3,16
2016-04-22,1,13
2016-04-23,3,16
2016-04-24,2,14
2016-04-25,0,11
2016-04-26,1,14
2016-04-27,3,13
2016-04-28,6,17
2016-04-29,2,16
2016-04-30,0,17
2016-05-01,0,13
2016-05-02,1,22
2016-05-03,2,12
2016-05-04,0,19
2016-05-05,1,23
2016-05-06,0,19
2016-05-07,0,16
2016-05-08,4,17
2016-05-09,1,20
2016-05-10,2,19
2016-05-11,6,20
2016-05-12,2,15
2016-05-13,1,24
2016-05-14,3,23
2016-05-15,3,18
2016-05-16,0,19
2016-05-17,3,22
2016-05-18,2,21
2016-05-19,1,25
2016-05-20,0,19
2016-05-21,0,15
2016-05-22,2,15
2016-05-23,1,23
2016-05-24,2,24
2016-05-25,1,25
2016-05-26,0,19
2016-05-27,0,26
2016-05-28,1,17
2016-05-29,0,22
2016-05-30,0,17
2016-05-31,3,31
2016-06-01,0,19
2016-06-02,1,27
2016-06-03,0,20
2016-06-04,0,26
2016-06-05,3,21
2016-06-06,1,30
2016-06-07,1,21
2016-06-08,3,28
2016-06-09,3,19
2016-06-10,3,30
2016-06-11,3,20
2016-06-12,1,28
2016-06-13,0,25
2016-06-14,1,28
2016-06-15,1,24
2016-06-16,2,31
2016-06-17,2,21
2016-06-18,0,25
2016-06-19,1,24
2016-06-20,1,31
2016-06-21,2,27
2016-06-22,0,31
2016-06-23,1,23
2016-06-24,0,28
2016-06-25,0,23
2016-06-26,1,31
2016-06-27,2,26
2016-06-28,1,26
2016-06-29,1,22
2016-06-30,2,24
2016-07-01,1,23
2016-07-02,2,28
2016-07-03,3,24
2016-07-04,1,31
2016-07-05,1,25
2016-07-06,3,30
2016-07-07,0,29
2016-07-08,2,32
2016-07-09,2,24
2016-07-10,0,32
2016-07-11,0,31
2016-07-12,0,27
2016-07-13,0,36
2016-07-14,0,27
2016-07-15,0,35
2016-07-16,1,23
2016-07-17,0,30
2016-07-18,0,27
2016-07-19,1,31
2016-07-20,2,28
2016-07-21,1,37
2016-07-22,2,34
2016-07-23,1,38
2016-07-24,0,29
2016-07-25,1,37
2016-07-26,2,30
2016-07-27,1,36
2016-07-28,0,30
2016-07-29,3,33
2016-07-30,3,33
2016-07-31,1,28
2016-08-01,6,33
2016-08-02,0,33
2016-08-03,1,29
2016-08-04,0,38
2016-08-05,1,35
2016-08-06,2,32
2016-08-07,0,30
2016-08-08,1,41
2016-08-09,5,35
2016-08-10,1,47
2016-08-11,1,35
2016-08-12,0,35
2016-08-13,2,34
2016-08-14,2,34
2016-08-15,2,38
2016-08-16,0,37
2016-08-17,0,37
2016-08-18,1,30
2016-08-19,0,39
2016-08-20,1,35
2016-08-21,1,34
2016-08-22,3,40
2016-08-23,2,37
2016-08-24,2,36
2016-08-25,0,38
2016-08-26,0,46
2016-08-27,0,36
2016-08-28,2,40
2016-08-29,2,38
2016-08-30,4,42
2016-08-31,4,38
2016-09-01,1,45
2016-09-02,1,41
2016-09-03,1,37
2016-09-04,0,39
2016-09-05,2,41
2016-09-06,1,33
2016-09-07,2,43
2016-09-08,0,43
2016-09-09,1,40
2016-09-10,0,29
2016-09-11,1,42
2016-09-12,0,42
2016-09-13,1,45
2016-09-14,2,43
2016-09-15,5,44
2016-09-16,3,40
2016-09-17,1,40
2016-09-18,3,49
2016-09-19,3,44
2016-09-20,0,43
2016-09-21,2,45
2016-09-22,2,39
2016-09-23,2,36
2016-09-24,1,43
2016-09-25,1,37
2016-09-26,2,38
2016-09-27,0,42
2016-09-28,2,41
2016-09-29,0,48
2016-09-30,2,46
2016-10-01,6,45
2016-10-02,1,35
2016-10-03,0,41
2016-10-04,0,41
2016-10-05,1,40
2016-10-06,0,39
2016-10-07,3,41
2016-10-08,0,38
2016-10-09,0,40
2016-10-10,2,41
2016-10-11,1,43
2016-10-12,4,43
2016-10-13,2,38
2016-10-14,3,47
2016-10-15,1,35
2016-10-16,0,40
2016-10-17,3,40
2016-10-18,1,48
2016-10-19,1,43
2016-10-20,2,46
2016-10-21,1,41
2016-10-22,2,44
2016-10-23,0,32
2016-10-24,0,42
2016-10-25,2,39
2016-10-26,0,48
2016-10-27,0,39
2016-10-28,1,49
2016-10-29,1,38
2016-10-30,3,38
2016-10-31,1,46
2016-11-01,0,45
2016-11-02,0,47
2016-11-03,2,41
2016-11-04,1,37
2016-11-05,3,35
2016-11-06,0,37
2016-11-07,2,46
2016-11-08,0,44
2016-11-09,3,45
2016-11-10,0,36
2016-11-11,2,41
2016-11-12,2,33
2016-11-13,1,44
2016-11-14,0,42
2016-11-15,1,42
2016-11-16,0,42
2016-11-17,1,42
2016-11-18,0,45
2016-11-19,1,39
2016-11-20,4,36
2016-11-21,0,47
2016-11-22,0,41
2016-11-23,1,43
2016-11-24,1,40
2016-11-25,3,49
2016-11-26,2,34
2016-11-27,0,44
2016-11-28,0,38
2016-11-29,1,50
2016-11-30,1,35
2016-12-01,0,41
2016-12-02,1,34
2016-12-03,0,40
2016-12-04,4,33
2016-12-05,2,47
2016-12-06,4,40
2016-12-07,3,47
2016-12-08,4,36
2016-12-09,2,47
2016-12-10,0,42
2016-12-11,0,36
2016-12-12,1,36
2016-12-13,0,44
2016-12-14,3,42
2016-12-15,1,36
2016-12-16,3,42
2016-12-17,3,38
2016-12-18,0,35
2016-12-19,0,53
2016-12-20,1,42
2016-12-21,2,49
2016-12-22,1,40
2016-12-23,1,41
2016-12-24,1,34
2016-12-25,1,40
2016-12-26,0,31
2016-12-27,0,52
2016-12-28,1,29
2016-12-29,3,47
2016-12-30,2,38
2016-12-31,5,50
2017-01-01,6,44
2017-01-02,2,50
2017-01-03,1,44
2017-01-04,8,54
2017-01-05,1,50
2017-01-06,4,50
2017-01-07,6,52
2017-01-08,2,49
2017-01-09,2,51
2017-01-10,3,55
2017-01-11,1,51
2017-01-12,0,61
2017-01-13,2,46
2017-01-14,3,53
2017-01-15,3,44
2017-01-16,0,55
2017-01-17,1,56
2017-01-18,2,48
2017-01-19,5,54
2017-01-20,0,54
2017-01-21,3,52
2017-01-22,6,50
2017-01-23,3,55
2017-01-24,1,62
2017-01-25,1,48
2017-01-26,2,62
2017-01-27,2,56
2017-01-28,2,51
2017-01-29,4,51
2017-01-30,3,56
2017-01-31,4,63
2017-02-01,1,54
2017-02-02,4,58
2017-02-03,3,60
2017-02-04,1,53
2017-02-05,5,60
2017-02-06,1,62
2017-02-07,1,62
2017-02-08,0,57
2017-02-09,0,57
2017-02-10,2,56
2017-02-11,2,53
2017-02-12,1,44
2017-02-13,0,55
2017-02-14,3,52
2017-02-15,2,56
2017-02-16,0,49
2017-02-17,0,57
2017-02-18,0,53
2017-02-19,1,45
2017-02-20,1,60
2017-02-21,2,53
2017-02-22,1,54
2017-02-23,2,56
2017-02-24,0,55
2017-02-25,0,42
2017-02-26,0,47
2017-02-27,2,53
2017-02-28,0,51
2017-03-01,3,56
2017-03-02,2,45
2017-03-03,2,56
2017-03-04,2,48
2017-03-05,3,47
2017-03-06,0,59
2017-03-07,3,52
2017-03-08,1,54
2017-03-09,2,63
2017-03-10,1,45
2017-03-11,2,50
2017-03-12,0,40
2017-03-13,2,56
2017-03-14,1,48
2017-03-15,1,58
2017-03-16,4,55
2017-03-17,4,49
2017-03-18,2,47
2017-03-19,2,52
2017-03-20,0,62
2017-03-21,1,57
2017-03-22,1,52
2017-03-23,1,52
2017-03-24,0,60
2017-03-25,1,47
2017-03-26,2,51
2017-03-27,1,54
2017-03-28,1,54
2017-03-29,0,53
2017-03-30,0,51
2017-03-31,0,51
2017-04-01,0,48
2017-04-02,3,45
2017-04-03,2,56
2017-04-04,3,51
2017-04-05,2,50
2017-04-06,1,58
2017-04-07,4,53
2017-04-08,1,52
2017-04-09,0,49
2017-04-10,1,54
2017-04-11,0,48
2017-04-12,1,62
2017-04-13,0,41
2017-04-14,2,49
2017-04-15,2,37
2017-04-16,0,46
2017-04-17,0,51
2017-04-18,0,54
2017-04-19,0,58
2017-04-20,0,56
2017-04-21,1,46
2017-04-22,0,0
2017-04-23,0,65
2017-04-24,0,46
2017-04-25,1,57
2017-04-26,0,51
2017-04-27,2,53
2017-04-28,1,52
2017-04-29,1,52
2017-04-30,1,39
2017-05-01,4,57
2017-05-02,0,41
2017-05-03,2,52
2017-05-04,0,46
2017-05-05,0,48
2017-05-06,1,42
2017-05-07,2,43
2017-05-08,1,55
2017-05-09,0,45
2017-05-10,2,54
2017-05-11,0,53
2017-05-12,1,52
2017-05-13,1,40
2017-05-14,2,53
2017-05-15,2,56
2017-05-16,1,59
2017-05-17,1,55
2017-05-18,3,55
2017-05-19,0,56
2017-05-20,2,47
2017-05-21,2,39
2017-05-22,0,50
2017-05-23,0,53
2017-05-24,3,57
2017-05-25,0,46
2017-05-26,2,47
2017-05-27,1,58
2017-05-28,3,41
2017-05-29,0,55
2017-05-30,3,48
2017-05-31,4,55
2017-06-01,2,59
2017-06-02,3,59
2017-06-03,3,53
2017-06-04,1,45
2017-06-05,1,71
2017-06-06,4,57
2017-06-07,1,65
2017-06-08,2,59
2017-06-09,1,62
2017-06-10,4,50
2017-06-11,0,52
2017-06-12,0,53
2017-06-13,2,58
2017-06-14,1,54
2017-06-15,1,61
2017-06-16,1,50
2017-06-17,0,53
2017-06-18,0,41
2017-06-19,1,69
2017-06-20,1,46
2017-06-21,0,68
2017-06-22,0,53
2017-06-23,0,53
2017-06-24,0,48
2017-06-25,0,47
2017-06-26,1,59
2017-06-27,0,63
2017-06-28,2,52
2017-06-29,0,59
2017-06-30,0,51
2017-07-01,1,56
2017-07-02,0,35
2017-07-03,0,66
2017-07-04,0,51
2017-07-05,0,56
2017-07-06,0,47
2017-07-07,2,56
2017-07-08,0,40
2017-07-09,2,52
2017-07-10,2,41
2017-07-11,0,60
2017-07-12,0,44
2017-07-13,1,62
2017-07-14,0,41
2017-07-15,0,54
2017-07-16,3,34
2017-07-17,2,70
2017-07-18,0,45
2017-07-19,3,63
2017-07-20,3,55
2017-07-21,0,72
2017-07-22,0,45
2017-07-23,0,58
2017-07-24,0,52
2017-07-25,1,60
2017-07-26,2,42
2017-07-27,3,58
2017-07-28,1,53
2017-07-29,0,52
2017-07-30,1,40
2017-07-31,2,55
2017-08-01,1,47
2017-08-02,3,51
2017-08-03,0,54
2017-08-04,1,40
2017-08-05,1,54
2017-08-06,3,44
2017-08-07,0,59
2017-08-08,1,53
2017-08-09,0,44
2017-08-10,1,52
2017-08-11,2,44
2017-08-12,3,44
2017-08-13,0,43
2017-08-14,1,55
2017-08-15,1,45
2017-08-16,2,57
2017-08-17,0,41
2017-08-18,0,59
2017-08-19,1,47
2017-08-20,1,53
2017-08-21,0,47
2017-08-22,1,54
2017-08-23,2,41
2017-08-24,1,55
2017-08-25,0,43
2017-08-26,0,48
2017-08-27,0,37
2017-08-28,1,55
2017-08-29,0,39
2017-08-30,0,45
2017-08-31,2,45
2017-09-01,1,40
2017-09-02,0,38
2017-09-03,1,42
2017-09-04,0,47
2017-09-05,0,42
2017-09-06,1,34
2017-09-07,0,45
2017-09-08,1,42
2017-09-09,0,34
2017-09-10,1,40
2017-09-11,0,42
2017-09-12,0,36
2017-09-13,3,28
2017-09-14,1,41
2017-09-15,2,42
2017-09-16,1,29
2017-09-17,1,37
2017-09-18,1,40
2017-09-19,0,35
2017-09-20,2,36
2017-09-21,0,28
2017-09-22,1,37
2017-09-23,0,32
2017-09-24,0,37
2017-09-25,1,30
2017-09-26,0,39
2017-09-27,1,33
2017-09-28,2,39
2017-09-29,1,24
2017-09-30,3,27
2017-10-01,3,26
2017-10-02,0,32
2017-10-03,0,42
2017-10-04,2,37
2017-10-05,5,37
2017-10-06,1,41
2017-10-07,0,32
2017-10-08,0,33
2017-10-09,0,36
2017-10-10,1,32
2017-10-11,0,34
2017-10-12,0,38
2017-10-13,0,32
2017-10-14,1,31
2017-10-15,1,29
2017-10-16,1,42
2017-10-17,1,40
2017-10-18,1,24
2017-10-19,0,39
2017-10-20,1,30
2017-10-21,0,32
2017-10-22,0,30
2017-10-23,0,36
2017-10-24,0,30
2017-10-25,1,34
2017-10-26,1,36
2017-10-27,0,28
2017-10-28,2,29
2017-10-29,3,29
2017-10-30,2,38
2017-10-31,1,37
2017-11-01,2,39
2017-11-02,0,32
2017-11-03,1,39
2017-11-04,0,31
2017-11-05,1,31
2017-11-06,1,24
2017-11-07,1,40
2017-11-08,0,31
2017-11-09,0,28
2017-11-10,0,34
2017-11-11,0,34
2017-11-12,3,31
2017-11-13,1,36
2017-11-14,5,33
2017-11-15,4,30
2017-11-16,3,29
2017-11-17,1,39
2017-11-18,2,26
2017-11-19,0,28
2017-11-20,0,34
2017-11-21,1,25
2017-11-22,1,31
2017-11-23,1,26
2017-11-24,0,34
2017-11-25,1,30
2017-11-26,0,26
2017-11-27,1,29
2017-11-28,1,32
2017-11-29,1,28
2017-11-30,1,32
2017-12-01,0,25
2017-12-02,1,29
2017-12-03,1,29
2017-12-04,0,28
2017-12-05,2,29
2017-12-06,0,29
2017-12-07,0,36
2017-12-08,1,30
2017-12-09,0,27
2017-12-10,0,28
2017-12-11,0,30
2017-12-12,1,27
2017-12-13,1,30
2017-12-14,2,29
2017-12-15,0,25
2017-12-16,0,30
2017-12-17,1,27
2017-12-18,1,27
2017-12-19,0,30
2017-12-20,0,29
2017-12-21,0,21
2017-12-22,0,25
2017-12-23,0,19
2017-12-24,0,22
2017-12-25,1,20
2017-12-26,1,23
2017-12-27,0,21
2017-12-28,0,24
2017-12-29,0,26
2017-12-30,2,25
2017-12-31,1,24
2018-01-01,1,26
2018-01-02,0,29
2018-01-03,1,29
2018-01-04,0,30
2018-01-05,0,30
2018-01-06,0,21
2018-01-07,2,27
2018-01-08,0,21
2018-01-09,0,36
2018-01-10,1,32
2018-01-11,1,29
2018-01-12,0,29
2018-01-13,1,28
2018-01-14,3,21
2018-01-15,0,26
2018-01-16,1,23
2018-01-17,1,23
2018-01-18,1,21
2018-01-19,1,25
2018-01-20,1,17
2018-01-21,0,25
2018-01-22,0,26
2018-01-23,0,31
2018-01-24,0,21
2018-01-25,0,31
2018-01-26,0,19
2018-01-27,1,24
2018-01-28,1,18
2018-01-29,0,27
2018-01-30,0,29
2018-01-31,0,18
2018-02-01,2,29
2018-02-02,2,25
2018-02-03,0,25
2018-02-04,2,24
2018-02-05,1,26
2018-02-06,0,22
2018-02-07,1,25
2018-02-08,0,32
2018-02-09,1,28
2018-02-10,1,21
2018-02-11,0,25
2018-02-12,0,22
2018-02-13,0,29
2018-02-14,0,23
2018-02-15,0,22
2018-02-16,0,28
2018-02-17,0,23
2018-02-18,3,26
2018-02-19,0,20
2018-02-20,0,32
2018-02-21,0,23
2018-02-22,0,30
2018-02-23,0,24
2018-02-24,0,23
2018-02-25,0,8
2018-02-26,0,15
2018-02-27,0,21
2018-02-28,2,13
2018-03-01,0,14
2018-03-02,1,11
2018-03-03,1,15
2018-03-04,0,11
2018-03-05,1,14
2018-03-06,1,23
2018-03-07,0,14
2018-03-08,1,15
2018-03-09,0,20
2018-03-10,0,13
2018-03-11,1,15
2018-03-12,0,13
2018-03-13,0,14
2018-03-14,0,14
2018-03-15,0,23
2018-03-16,0,17
2018-03-17,0,14
2018-03-18,0,13
2018-03-19,2,15
2018-03-20,0,11
2018-03-21,1,11
2018-03-22,2,15
2018-03-23,2,14
2018-03-24,0,11
2018-03-25,2,13
2018-03-26,1,18
2018-03-27,1,19
2018-03-28,1,14
2018-03-29,1,17
2018-03-30,1,11
2018-03-31,0,12
2018-04-01,0,14
2018-04-02,0,17
2018-04-03,1,18
2018-04-04,0,14
2018-04-05,0,10
2018-04-06,0,17
2018-04-07,1,10
2018-04-08,1,6
2018-04-09,0,15
2018-04-10,0,15
2018-04-11,0,16
2018-04-12,0,13
2018-04-13,0,11
2018-04-14,0,12
2018-04-15,1,13
2018-04-16,0,13
2018-04-17,0,15
2018-04-18,0,18
2018-04-19,1,16
2018-04-20,0,12
2018-04-21,0,13
2018-04-22,1,8
2018-04-23,1,11
2018-04-24,1,16
2018-04-25,1,14
2018-04-26,1,17
2018-04-27,0,13
2018-04-28,0,10
2018-04-29,1,11
2018-04-30,0,16
2018-05-01,0,13
2018-05-02,0,15
2018-05-03,0,18
2018-05-04,2,14
2018-05-05,0,17
2018-05-06,0,12
2018-05-07,0,18
2018-05-08,0,15
2018-05-09,0,16
2018-05-10,1,14
2018-05-11,0,15
2018-05-12,1,13
2018-05-13,0,10
2018-05-14,0,15
2018-05-15,1,18
2018-05-16,0,18
2018-05-17,1,17
2018-05-18,0,15
2018-05-19,1,9
2018-05-20,1,10
2018-05-21,0,11
2018-05-22,0,12
2018-05-23,1,12
2018-05-24,0,20
2018-05-25,1,7
2018-05-26,0,12
2018-05-27,0,10
2018-05-28,1,10
2018-05-29,1,11
2018-05-30,0,17
2018-05-31,1,16
2018-06-01,0,11
2018-06-02,0,11
2018-06-03,0,8
2018-06-04,0,8
2018-06-05,0,15
2018-06-06,0,11
2018-06-07,0,10
2018-06-08,0,11
2018-06-09,0,11
2018-06-10,0,5
2018-06-11,0,10
2018-06-12,0,11
2018-06-13,0,11
2018-06-14,0,13
2018-06-15,0,7
2018-06-16,0,10
2018-06-17,0,15
2018-06-18,1,8
2018-06-19,0,15
2018-06-20,2,10
2018-06-21,0,9
2018-06-22,1,13
2018-06-23,0,15
2018-06-24,0,12
2018-06-25,0,12
2018-06-26,0,10
2018-06-27,1,14
2018-06-28,0,10
2018-06-29,0,13
2018-06-30,0,8
2018-07-01,0,7
2018-07-02,0,16
2018-07-03,0,9
2018-07-04,0,9
2018-07-05,0,11
2018-07-06,1,17
2018-07-07,0,7
2018-07-08,0,10
2018-07-09,0,15
2018-07-10,0,10
2018-07-11,1,10
2018-07-12,0,11
2018-07-13,0,6
2018-07-14,1,10
2018-07-15,0,12
2018-07-16,0,10
2018-07-17,1,14
2018-07-18,1,12
2018-07-19,0,11
2018-07-20,0,7
2018-07-21,0,7
2018-07-22,0,7
2018-07-23,0,7
2018-07-24,0,10
2018-07-25,0,11
2018-07-26,0,9
2018-07-27,0,10
2018-07-28,0,5
2018-07-29,0,11
2018-07-30,0,8
2018-07-31,0,17
2018-08-01,1,16
2018-08-02,2,9
2018-08-03,2,8
2018-08-04,0,11
2018-08-05,0,11
2018-08-06,0,7
2018-08-07,1,13
2018-08-08,0,8
2018-08-09,0,10
2018-08-10,1,7
2018-08-11,1,11
2018-08-12,2,7
2018-08-13,1,9
2018-08-14,0,10
2018-08-15,1,13
2018-08-16,0,11
2018-08-17,0,11
2018-08-18,0,6
2018-08-19,0,6
2018-08-20,0,11
2018-08-21,0,13
2018-08-22,0,11
2018-08-23,1,10
2018-08-24,1,13
2018-08-25,0,8
2018-08-26,0,11
2018-08-27,0,12
2018-08-28,0,10
2018-08-29,0,17
2018-08-30,0,8
2018-08-31,0,12
2018-09-01,0,18
2018-09-02,0,11
2018-09-03,0,10
2018-09-04,1,11
2018-09-05,0,11
2018-09-06,0,12
2018-09-07,0,14
2018-09-08,0,7
2018-09-09,0,11
2018-09-10,0,8
2018-09-11,0,10
2018-09-12,1,9
2018-09-13,0,7
2018-09-14,1,12
2018-09-15,1,9
2018-09-16,0,10
2018-09-17,2,9
2018-09-18,1,10
2018-09-19,0,12
2018-09-20,0,12
2018-09-21,0,14
2018-09-22,0,13
2018-09-23,0,8
2018-09-24,0,9
2018-09-25,0,13
2018-09-26,0,13
2018-09-27,1,16
2018-09-28,1,7
2018-09-29,0,12
2018-09-30,0,6
2018-10-01,0,11
2018-10-02,1,11
2018-10-03,2,11
2018-10-04,0,10
2018-10-05,2,13
2018-10-06,1,8
2018-10-07,0,5
2018-10-08,1,8
2018-10-09,0,8
2018-10-10,0,12
2018-10-11,1,7
2018-10-12,1,9
2018-10-13,1,4
2018-10-14,0,7
2018-10-15,1,8
2018-10-16,0,5
2018-10-17,1,10
2018-10-18,0,6
2018-10-19,1,12
2018-10-20,0,4
2018-10-21,0,6
2018-10-22,1,9
2018-10-23,0,6
2018-10-24,2,8
2018-10-25,1,6
2018-10-26,1,11
2018-10-27,3,8
2018-10-28,1,10
2018-10-29,0,10
2018-10-30,0,10
2018-10-31,2,12
2018-11-01,0,12
2018-11-02,0,13
2018-11-03,0,10
2018-11-04,0,15
2018-11-05,0,8
2018-11-06,0,9
2018-11-07,1,12
2018-11-08,1,14
2018-11-09,1,10
2018-11-10,2,14
2018-11-11,1,11
2018-11-12,1,12
2018-11-13,0,17
2018-11-14,2,11
2018-11-15,2,9
2018-11-16,0,14
2018-11-17,0,14
2018-11-18,0,7
2018-11-19,1,14
2018-11-20,0,10
2018-11-21,0,9
2018-11-22,0,11
2018-11-23,1,12
2018-11-24,1,14
2018-11-25,0,14
2018-11-26,0,15
2018-11-27,0,12
2018-11-28,0,13
2018-11-29,0,11
2018-11-30,1,10
2018-12-01,0,13
2018-12-02,1,10
2018-12-03,0,12
2018-12-04,0,14
2018-12-05,1,10
2018-12-06,0,12
2018-12-07,0,12
2018-12-08,0,9
2018-12-09,0,9
2018-12-10,0,9
2018-12-11,1,14
2018-12-12,0,12
2018-12-13,1,12
2018-12-14,0,14
2018-12-15,0,11
2018-12-16,0,14
2018-12-17,0,12
2018-12-18,0,11
2018-12-19,1,10
2018-12-20,3,14
2018-12-21,0,9
2018-12-22,1,9
2018-12-23,1,13
2018-12-24,0,13
2018-12-25,0,10
2018-12-26,0,12
2018-12-27,1,9
2018-12-28,0,11
2018-12-29,1,11
2018-12-30,1,10
2018-12-31,0,11
2019-01-01,0,10
2019-01-02,0,8
2019-01-03,1,10
2019-01-04,1,12
2019-01-05,0,15
2019-01-06,1,11
2019-01-07,0,13
2019-01-08,2,7
2019-01-09,1,16
2019-01-10,1,9
2019-01-11,1,14
2019-01-12,1,10
2019-01-13,0,12
2019-01-14,0,13
2019-01-15,1,9
2019-01-16,1,12
2019-01-17,2,10
2019-01-18,1,7
2019-01-19,1,12
2019-01-20,1,9
2019-01-21,0,11
2019-01-22,0,13
2019-01-23,0,17
2019-01-24,0,11
2019-01-25,0,13
2019-01-26,0,9
2019-01-27,1,13
2019-01-28,1,10
2019-01-29,0,12
2019-01-30,0,13
2019-01-31,1,14
2019-02-01,0,10
2019-02-02,0,9
2019-02-03,1,15
2019-02-04,1,14
2019-02-05,0,16
2019-02-06,0,10
2019-02-07,0,9
2019-02-08,0,11
2019-02-09,0,9
2019-02-10,1,10
2019-02-11,0,13
2019-02-12,1,9
2019-02-13,0,11
2019-02-14,0,10
2019-02-15,2,10
2019-02-16,3,7
2019-02-17,0,11
2019-02-18,0,13
2019-02-19,0,8
2019-02-20,2,7
2019-02-21,1,11
2019-02-22,1,9
2019-02-23,1,11
2019-02-24,0,9
2019-02-25,0,11
2019-02-26,0,10
2019-02-27,0,10
2019-02-28,0,11
2019-03-01,0,8
2019-03-02,1,9
2019-03-03,0,9
2019-03-04,1,9
2019-03-05,2,10
2019-03-06,0,4
2019-03-07,1,9
2019-03-08,0,5
2019-03-09,0,8
2019-03-10,0,6
2019-03-11,3,7
2019-03-12,0,7
2019-03-13,0,10
2019-03-14,0,10
2019-03-15,0,14
2019-03-16,0,9
2019-03-17,0,11
2019-03-18,1,9
2019-03-19,1,10
2019-03-20,1,11
2019-03-21,0,9
2019-03-22,0,10
2019-03-23,0,15
2019-03-24,0,10
2019-03-25,0,15
2019-03-26,0,12
2019-03-27,0,6
2019-03-28,0,11
2019-03-29,0,13
2019-03-30,0,13
2019-03-31,0,10
2019-04-01,0,7
2019-04-02,0,15
2019-04-03,1,8
2019-04-04,0,11
2019-04-05,1,11
2019-04-06,0,14
2019-04-07,1,10
2019-04-08,0,13
2019-04-09,0,12
2019-04-10,1,12
2019-04-11,1,12
2019-04-12,1,11
2019-04-13,1,13
2019-04-14,3,8
2019-04-15,1,10
2019-04-16,1,12
2019-04-17,0,13
2019-04-18,0,13
2019-04-19,3,10
2019-04-20,2,11
2019-04-21,1,13
2019-04-22,1,9
2019-04-23,1,14
2019-04-24,0,9
2019-04-25,2,14
2019-04-26,0,13
2019-04-27,1,9
2019-04-28,0,8
2019-04-29,0,13
2019-04-30,0,12
2019-05-01,0,12
2019-05-02,1,10
2019-05-03,0,16
2019-05-04,1,11
2019-05-05,2,13
2019-05-06,1,16
2019-05-07,0,10
2019-05-08,1,10
2019-05-09,1,11
2019-05-10,0,12
2019-05-11,0,15
2019-05-12,0,15
2019-05-13,0,16
2019-05-14,0,18
2019-05-15,0,11
2019-05-16,0,13
2019-05-17,0,13
2019-05-18,1,12
2019-05-19,0,7
2019-05-20,2,16
2019-05-21,0,13
2019-05-22,0,17
2019-05-23,0,8
2019-05-24,2,12
2019-05-25,1,9
2019-05-26,2,15
2019-05-27,1,8
2019-05-28,1,10
2019-05-29,0,11
2019-05-30,1,10
2019-05-31,1,12
2019-06-01,0,12
2019-06-02,0,12
2019-06-03,0,11
2019-06-04,0,8
2019-06-05,2,13
2019-06-06,0,11
2019-06-07,0,9
2019-06-08,1,11
2019-06-09,0,11
2019-06-10,0,10
2019-06-11,1,11
2019-06-12,2,8
2019-06-13,3,11
2019-06-14,3,9
2019-06-15,2,9
2019-06-16,0,11
2019-06-17,0,7
2019-06-18,0,8
2019-06-19,0,10
2019-06-20,1,9
2019-06-21,1,5
2019-06-22,0,7
2019-06-23,0,4
2019-06-24,0,10
2019-06-25,0,2
2019-06-26,1,5
2019-06-27,0,2
2019-06-28,0,10
2019-06-29,0,4
2019-06-30,0,6
2019-07-01,0,9
2019-07-02,0,7
2019-07-03,0,6
2019-07-04,1,6
2019-07-05,1,6
2019-07-06,1,4
2019-07-07,0,8
2019-07-08,0,8
2019-07-09,2,8
2019-07-10,0,7
2019-07-11,0,8
2019-07-12,0,5
2019-07-13,0,8
2019-07-14,0,9
2019-07-15,1,8
2019-07-16,0,9
2019-07-17,0,7
2019-07-18,1,8
2019-07-19,0,7
2019-07-20,0,4
2019-07-21,0,5
2019-07-22,0,6
2019-07-23,0,7
2019-07-24,1,7
2019-07-25,1,7
2019-07-26,1,11
2019-07-27,1,4
2019-07-28,0,6
2019-07-29,2,6
2019-07-30,0,6
2019-07-31,0,5
2019-08-01,1,5
2019-08-02,1,7
2019-08-03,1,2
2019-08-04,0,3
2019-08-05,0,4
2019-08-06,0,5
2019-08-07,0,7
2019-08-08,1,8
2019-08-09,0,2
2019-08-10,0,4
2019-08-11,0,4
2019-08-12,0,8
2019-08-13,0,5
2019-08-14,0,4
2019-08-15,0,5
2019-08-16,2,6
2019-08-17,2,3
2019-08-18,1,4
2019-08-19,4,5
2019-08-20,0,6
2019-08-21,0,6
2019-08-22,0,4
2019-08-23,0,1
2019-08-24,1,6
2019-08-25,0,7
2019-08-26,0,6
2019-08-27,0,3
2019-08-28,0,4
2019-08-29,0,5
2019-08-30,0,4
2019-08-31,0,4
2019-09-01,0,7
2019-09-02,0,5
2019-09-03,0,7
2019-09-04,0,4
2019-09-05,0,4
2019-09-06,0,7
2019-09-07,0,3
2019-09-08,0,7
2019-09-09,1,5
2019-09-10,1,6
2019-09-11,0,8
2019-09-12,1,4
2019-09-13,0,4
2019-09-14,1,6
2019-09-15,0,4
2019-09-16,2,5
2019-09-17,0,3
2019-09-18,0,5
2019-09-19,0,6
2019-09-20,0,4
2019-09-21,0,5
2019-09-22,0,7
2019-09-23,1,11
2019-09-24,1,7
2019-09-25,0,5
2019-09-26,1,7
2019-09-27,0,8
2019-09-28,0,4
2019-09-29,0,7
2019-09-30,0,7
2019-10-01,1,7
2019-10-02,2,4
2019-10-03,1,7
2019-10-04,2,3
2019-10-05,0,9
2019-10-06,0,5
2019-10-07,0,4
2019-10-08,0,4
2019-10-09,0,7
2019-10-10,0,6
2019-10-11,0,10
2019-10-12,0,4
2019-10-13,0,3
2019-10-14,0,4
2019-10-15,0,8
2019-10-16,0,7
2019-10-17,0,7
2019-10-18,0,4
2019-10-19,0,1
2019-10-20,0,3
2019-10-21,0,8
2019-10-22,0,3
2019-10-23,1,4
2019-10-24,0,8
2019-10-25,1,5
2019-10-26,0,5
2019-10-27,0,6
2019-10-28,1,7
2019-10-29,1,7
2019-10-30,1,9
2019-10-31,0,9
2019-11-01,0,4
2019-11-02,1,4
2019-11-03,2,2
2019-11-04,1,8
2019-11-05,0,9
2019-11-06,0,9
2019-11-07,0,5
2019-11-08,1,8
2019-11-09,0,3
2019-11-10,0,6
2019-11-11,1,3
2019-11-12,1,5
2019-11-13,0,8
2019-11-14,0,9
2019-11-15,0,10
2019-11-16,0,7
2019-11-17,1,6
2019-11-18,0,7
2019-11-19,0,8
2019-11-20,0,7
2019-11-21,0,8
2019-11-22,0,6
2019-11-23,0,5
2019-11-24,0,6
2019-11-25,0,7
2019-11-26,2,7
2019-11-27,0,6
2019-11-28,1,4
2019-11-29,1,6
2019-11-30,0,6
2019-12-01,0,5
2019-12-02,0,6
2019-12-03,0,7
2019-12-04,0,9
2019-12-05,0,7
2019-12-06,1,7
2019-12-07,3,5
2019-12-08,0,9
2019-12-09,0,8
2019-12-10,1,10
2019-12-11,0,12
2019-12-12,0,12
2019-12-13,1,14
2019-12-14,0,8
2019-12-15,0,6
2019-12-16,1,12
2019-12-17,0,9
2019-12-18,0,8
2019-12-19,0,15
2019-12-20,0,11
2019-12-21,1,6
2019-12-22,0,8
2019-12-23,0,8
2019-12-24,0,8
2019-12-25,0,12
2019-12-26,0,10
2019-12-27,0,10
2019-12-28,0,6
2019-12-29,0,9
2019-12-30,0,11
2019-12-31,0,6
2020-01-01,1,7
2020-01-02,0,10
2020-01-03,0,9
2020-01-04,1,10
2020-01-05,0,8
2020-01-06,0,8
2020-01-07,0,10
2020-01-08,1,11
2020-01-09,0,13
2020-01-10,1,12
2020-01-11,0,9
2020-01-12,1,10
2020-01-13,1,7
2020-01-14,1,10
2020-01-15,0,11
2020-01-16,0,9
2020-01-17,0,13
2020-01-18,0,4
2020-01-19,1,10
2020-01-20,1,10
2020-01-21,2,10
2020-01-22,1,10
2020-01-23,0,14
2020-01-24,1,12
2020-01-25,2,6
2020-01-26,0,5
2020-01-27,1,8
2020-01-28,0,7
2020-01-29,0,8
2020-01-30,1,12
2020-01-31,0,12
2020-02-01,0,7
2020-02-02,0,8
2020-02-03,0,12
2020-02-04,0,8
2020-02-05,0,10
2020-02-06,0,10
2020-02-07,2,9
2020-02-08,0,5
2020-02-09,3,6
2020-02-10,0,8
2020-02-11,0,12
2020-02-12,3,7
2020-02-13,0,9
2020-02-14,1,9
2020-02-15,0,11
2020-02-16,2,8
2020-02-17,2,8
2020-02-18,0,6
2020-02-19,1,9
2020-02-20,0,10
2020-02-21,0,8
2020-02-22,0,7
2020-02-23,1,11
2020-02-24,0,7
2020-02-25,1,8
2020-02-26,1,6
2020-02-27,0,11
2020-02-28,1,12
2020-02-29,0,9
2020-03-01,1,8
2020-03-02,1,9
2020-03-03,1,12
2020-03-04,1,6
2020-03-05,0,10
2020-03-06,0,12
2020-03-07,0,8
2020-03-08,0,8
2020-03-09,0,10
2020-03-10,0,8
2020-03-11,0,12
2020-03-12,1,2
2020-03-13,0,11
2020-03-14,0,9
2020-03-15,1,8
2020-03-16,0,13
2020-03-17,0,14
2020-03-18,0,8
2020-03-19,0,10
2020-03-20,0,8
2020-03-21,0,8
2020-03-22,2,3
2020-03-23,0,9
2020-03-24,0,13
2020-03-25,1,12
2020-03-26,0,15
2020-03-27,0,9
2020-03-28,0,9
2020-03-29,0,9
2020-03-30,0,8
2020-03-31,0,10
2020-04-01,0,9
2020-04-02,0,9
2020-04-03,0,11
2020-04-04,1,12
2020-04-05,2,6
2020-04-06,1,14
2020-04-07,1,9
2020-04-08,0,11
2020-04-09,1,14
2020-04-10,1,5
2020-04-11,0,7
2020-04-12,2,7
2020-04-13,1,10
2020-04-14,0,12
2020-04-15,0,11
2020-04-16,1,12
2020-04-17,1,5
2020-04-18,1,10
2020-04-19,0,7